Abilene, TX

5:33 AM CDT on May 27, 2018 (GMT -0500)
Abilene Regional

Weather History for KABI - December, 2013

Change the Weather History Date:

Tuesday, December 3, 2013

  Actual Average Record
Temperature  
Mean Temperature 66 °F 48 °F  
Max Temperature 83 °F 59 °F 87 °F (2005)
Min Temperature 49 °F 36 °F 16 °F (1897)
Degree Days  
Heating Degree Days 0 17  
Month to date heating degree days 17 51  
Since 1 July heating degree days 489 484  
Cooling Degree Days 1 0  
Month to date cooling degree days 1 0  
Year to date cooling degree days 2723 2408  
Growing Degree Days 20 (Base 50)    
Moisture  
Dew Point 28 °F    
Average Humidity 29    
Maximum Humidity 48    
Minimum Humidity 10    
Precipitation  
Precipitation 0.00 in 0.04 in 1.43 in (1947)
Month to date precipitation 0.00 0.11  
Year to date precipitation 22.08 23.70  
Sea Level Pressure  
Sea Level Pressure 29.57 in    
Wind  
Wind Speed 11 mph (WSW)    
Max Wind Speed 28 mph    
Max Gust Speed 35 mph    
Visibility 10 miles    
Events      
T = Trace of Precipitation, MM = Missing Value Source: NWS Daily Summary

Daily Weather History Graph

Daily Weather History Graph

Search for Another Location

Airport or City:

Astronomy

Dec. 03, 2013 Rise Set
Actual Time 7:24 AM CST 5:33 PM CST
Civil Twilight 6:57 AM CST 5:59 PM CST
Nautical Twilight 6:26 AM CST 6:30 PM CST
Astronomical Twilight 5:57 AM CST 7:00 PM CST
Moon 7:56 AM CST (12/3) 6:37 PM CST (12/3)
Length of Visible Light 11h 02m
Length of Day
10h 08m
New Moon, 1% of the Moon is Illuminated
Dec 3
New Moon
Dec 9
First Quarter
Dec 17
Full
Dec 25
Last Quarter
Jan 1
New

Hourly Weather History & Observations

Time (CST) Temp. Dew Point Humidity Pressure Visibility Wind Dir Wind Speed Gust Speed Precip Events Conditions
12:52 AM 52.0 °F 32.0 °F 47% 29.61 in 10.0 mi South 8.1 mph - N/A   Clear
1:52 AM 51.1 °F 32.0 °F 48% 29.59 in 10.0 mi North - - N/A   Clear
2:52 AM 54.0 °F 30.0 °F 40% 29.59 in 10.0 mi SSW 9.2 mph - N/A   Clear
3:52 AM 53.1 °F 28.9 °F 40% 29.58 in 10.0 mi SW 5.8 mph - N/A   Clear
4:52 AM 50.0 °F 30.0 °F 46% 29.58 in 10.0 mi SW 4.6 mph - N/A   Clear
5:52 AM 59.0 °F 26.1 °F 28% 29.57 in 10.0 mi West 11.5 mph - N/A   Clear
6:52 AM 57.9 °F 25.0 °F 28% 29.59 in 10.0 mi West 11.5 mph - N/A   Clear
7:52 AM 60.1 °F 25.0 °F 26% 29.59 in 10.0 mi West 12.7 mph - N/A   Clear
8:52 AM 64.0 °F 25.0 °F 23% 29.60 in 10.0 mi West 15.0 mph - N/A   Clear
9:52 AM 69.1 °F 26.1 °F 20% 29.62 in 10.0 mi WNW 15.0 mph 21.9 mph N/A   Clear
10:52 AM 75.0 °F 27.0 °F 17% 29.61 in 10.0 mi West 12.7 mph 21.9 mph N/A   Clear
11:52 AM 79.0 °F 24.1 °F 13% 29.58 in 10.0 mi West 23.0 mph 32.2 mph N/A   Clear
12:52 PM 81.0 °F 24.1 °F 12% 29.55 in 10.0 mi WNW 18.4 mph 27.6 mph N/A   Clear
1:52 PM 82.0 °F 25.0 °F 12% 29.52 in 10.0 mi West 17.3 mph 23.0 mph N/A   Clear
2:52 PM 82.0 °F 19.9 °F 10% 29.51 in 10.0 mi WNW 16.1 mph 21.9 mph N/A   Clear
3:52 PM 79.0 °F 24.1 °F 13% 29.52 in 10.0 mi West 5.8 mph - N/A   Clear
4:52 PM 75.0 °F 28.9 °F 18% 29.54 in 10.0 mi WSW 9.2 mph - N/A   Clear
5:52 PM 66.9 °F 30.0 °F 25% 29.54 in 10.0 mi SSW 6.9 mph - N/A   Clear
6:52 PM 61.0 °F 32.0 °F 34% 29.57 in 10.0 mi SSE 5.8 mph - N/A   Clear
7:52 PM 59.0 °F 30.9 °F 35% 29.57 in 10.0 mi South 5.8 mph - N/A   Clear
8:52 PM 57.9 °F 34.0 °F 41% 29.57 in 10.0 mi SSW 8.1 mph - N/A   Clear
9:52 PM 61.0 °F 34.0 °F 36% 29.57 in 10.0 mi SSW 10.4 mph - N/A   Clear
10:52 PM 57.9 °F 35.1 °F 42% 29.57 in 10.0 mi SSW 9.2 mph - N/A   Clear
11:52 PM 59.0 °F 34.0 °F 39% 29.57 in 10.0 mi South 10.4 mph - N/A   Clear